Location: Borowce
(50.8255°N, 19.6209°E)
Time: 17:12:10
(UTC+00:00)

ALOS 2 - Pass Details

Date: 19 May 2025
Orbit: 630 x 632 km, 97.9° (Epoch: 21 June)

Event Time Altitude Azimuth Distance (km) Brightness Sun altitude
Exits shadow 22:17:55 41° 196° (SSW) 916 2.9 -19.1°
Maximum altitude 22:19:15 63° 258° (WSW) 713 2.7 -19.1°
Drops below altitude 10° 22:23:38 10° 340° (NNW) 2,028 6.3 -19.1°
Sets 22:25:52 0° 344° (NNW) 2,941 7.5 -19.1°
